Time,TemperatureF,DewpointF,PressureIn,WindDirection,WindDirectionDegrees,WindSpeedMPH,WindSpeedGustMPH,Humidity,HourlyPrecipIn,Conditions,Clouds,dailyrainin,SoftwareType,DateUTC
2013-02-26 00:02:00,14.7,6.4,29.99,SW,236,3.0,3.0,69,0.00,,,0.24,meteohub,2013-02-26 07:02:00,
2013-02-26 00:07:00,14.7,6.4,29.98,SW,236,0.0,3.0,69,0.00,,,0.00,meteohub,2013-02-26 07:07:00,
2013-02-26 00:12:00,14.7,6.4,29.98,SW,236,0.0,3.0,69,0.00,,,0.00,meteohub,2013-02-26 07:12:00,
2013-02-26 00:17:00,14.7,6.4,29.98,SW,236,0.0,3.0,69,0.00,,,0.00,meteohub,2013-02-26 07:17:00,
2013-02-26 00:22:00,14.5,6.3,29.98,SW,236,0.0,0.0,69,0.00,,,0.00,meteohub,2013-02-26 07:22:00,
2013-02-26 00:27:00,14.4,6.4,29.98,SW,236,0.0,1.0,70,0.00,,,0.00,meteohub,2013-02-26 07:27:00,
2013-02-26 00:32:00,14.2,5.9,29.98,SW,236,2.0,3.0,69,0.00,,,0.00,meteohub,2013-02-26 07:32:00,
2013-02-26 00:37:00,14.0,6.1,29.98,SW,236,4.0,4.0,70,0.00,,,0.00,meteohub,2013-02-26 07:37:00,
2013-02-26 00:42:00,14.4,6.6,29.98,SW,236,0.0,5.0,71,0.00,,,0.00,meteohub,2013-02-26 07:42:00,
2013-02-26 00:47:00,14.4,6.6,29.98,SW,236,2.0,5.0,71,0.00,,,0.00,meteohub,2013-02-26 07:47:00,
2013-02-26 00:52:00,14.5,6.6,29.98,SW,236,2.0,5.0,70,0.00,,,0.00,meteohub,2013-02-26 07:52:00,
2013-02-26 00:57:00,14.7,7.0,29.98,SW,236,0.0,4.0,71,0.00,,,0.00,meteohub,2013-02-26 07:57:00,
2013-02-26 01:02:00,14.9,7.2,29.98,SW,236,2.0,4.0,71,0.00,,,0.00,meteohub,2013-02-26 08:02:00,
2013-02-26 01:07:00,14.9,7.2,29.98,SW,236,0.0,3.0,71,0.00,,,0.00,meteohub,2013-02-26 08:07:00,
2013-02-26 01:12:00,15.1,7.7,29.98,SW,236,1.0,2.0,72,0.00,,,0.00,meteohub,2013-02-26 08:12:00,
2013-02-26 01:17:00,15.6,8.6,29.97,SW,236,1.0,2.0,73,0.00,,,0.00,meteohub,2013-02-26 08:17:00,
2013-02-26 01:22:00,16.2,8.8,29.97,SW,236,0.0,6.0,72,0.00,,,0.00,meteohub,2013-02-26 08:22:00,
2013-02-26 01:27:00,16.9,8.4,29.97,West,259,5.0,6.0,69,0.00,,,0.00,meteohub,2013-02-26 08:27:00,
2013-02-26 01:32:00,17.2,8.8,29.97,WNW,296,0.0,6.0,69,0.00,,,0.00,meteohub,2013-02-26 08:32:00,
2013-02-26 01:37:00,17.4,8.6,29.97,WNW,296,0.0,6.0,68,0.00,,,0.00,meteohub,2013-02-26 08:37:00,
2013-02-26 01:42:00,17.8,9.0,29.97,WNW,296,0.0,6.0,68,0.00,,,0.00,meteohub,2013-02-26 08:42:00,
2013-02-26 01:47:00,17.8,8.6,29.97,WNW,296,0.0,2.0,67,0.00,,,0.00,meteohub,2013-02-26 08:47:00,
2013-02-26 01:52:00,18.0,8.8,29.98,WNW,296,0.0,2.0,67,0.00,,,0.00,meteohub,2013-02-26 08:52:00,
2013-02-26 01:57:00,18.0,8.8,29.98,WNW,296,0.0,2.0,67,0.00,,,0.00,meteohub,2013-02-26 08:57:00,
2013-02-26 02:02:00,18.0,9.1,29.98,WNW,296,1.0,3.0,68,0.00,,,0.00,meteohub,2013-02-26 09:02:00,
2013-02-26 02:07:00,18.1,9.7,29.97,WNW,296,0.0,3.0,69,0.00,,,0.00,meteohub,2013-02-26 09:07:00,
2013-02-26 02:12:00,18.1,9.3,29.97,WNW,296,0.0,3.0,68,0.00,,,0.00,meteohub,2013-02-26 09:12:00,
2013-02-26 02:17:00,18.1,9.3,29.97,WNW,296,1.0,2.0,68,0.00,,,0.00,meteohub,2013-02-26 09:17:00,
2013-02-26 02:22:00,18.1,9.7,29.96,WNW,296,0.0,2.0,69,0.00,,,0.00,meteohub,2013-02-26 09:22:00,
2013-02-26 02:27:00,18.3,9.9,29.96,WNW,296,1.0,4.0,69,0.00,,,0.00,meteohub,2013-02-26 09:27:00,
2013-02-26 02:32:00,18.7,10.2,29.97,WNW,296,1.0,4.0,69,0.00,,,0.00,meteohub,2013-02-26 09:32:00,
2013-02-26 02:37:00,18.7,9.9,29.97,WNW,296,3.0,3.0,68,0.00,,,0.00,meteohub,2013-02-26 09:37:00,
2013-02-26 02:42:00,18.7,9.9,29.97,WNW,296,0.0,4.0,68,0.00,,,0.00,meteohub,2013-02-26 09:42:00,
2013-02-26 02:47:00,18.7,10.2,29.97,WNW,296,0.0,4.0,69,0.00,,,0.00,meteohub,2013-02-26 09:47:00,
2013-02-26 02:52:00,18.3,10.2,29.97,WNW,296,0.0,4.0,70,0.00,,,0.00,meteohub,2013-02-26 09:52:00,
2013-02-26 02:57:00,18.7,10.6,29.96,WNW,296,2.0,3.0,70,0.00,,,0.00,meteohub,2013-02-26 09:57:00,
2013-02-26 03:02:00,18.7,10.6,29.97,WNW,296,0.0,3.0,70,0.00,,,0.00,meteohub,2013-02-26 10:02:00,
2013-02-26 03:07:00,18.9,10.8,29.97,WNW,296,0.0,3.0,70,0.00,,,0.00,meteohub,2013-02-26 10:07:00,
2013-02-26 03:12:00,18.9,10.8,29.97,WNW,296,1.0,3.0,70,0.00,,,0.00,meteohub,2013-02-26 10:12:00,
2013-02-26 03:17:00,18.7,10.6,29.96,WNW,296,0.0,2.0,70,0.00,,,0.00,meteohub,2013-02-26 10:17:00,
2013-02-26 03:22:00,18.7,10.6,29.96,WNW,296,3.0,3.0,70,0.00,,,0.00,meteohub,2013-02-26 10:22:00,
2013-02-26 03:27:00,18.7,10.6,29.96,WNW,296,1.0,3.0,70,0.00,,,0.00,meteohub,2013-02-26 10:27:00,
2013-02-26 03:32:00,18.9,10.8,29.97,WNW,296,1.0,3.0,70,0.00,,,0.00,meteohub,2013-02-26 10:32:00,
2013-02-26 03:37:00,18.9,10.8,29.97,WNW,296,0.0,3.0,70,0.00,,,0.00,meteohub,2013-02-26 10:37:00,
2013-02-26 03:42:00,18.9,10.9,29.96,WNW,296,1.0,3.0,71,0.00,,,0.00,meteohub,2013-02-26 10:42:00,
2013-02-26 03:47:00,18.9,10.9,29.96,WNW,296,0.0,2.0,71,0.00,,,0.00,meteohub,2013-02-26 10:47:00,
2013-02-26 03:52:00,19.0,11.5,29.96,WNW,296,0.0,1.0,72,0.00,,,0.00,meteohub,2013-02-26 10:52:00,
2013-02-26 03:57:00,19.0,11.5,29.97,WNW,296,0.0,1.0,72,0.00,,,0.00,meteohub,2013-02-26 10:57:00,
2013-02-26 04:02:00,19.2,11.7,29.96,WNW,296,0.0,1.0,72,0.00,,,0.00,meteohub,2013-02-26 11:02:00,
2013-02-26 04:07:00,19.2,11.7,29.96,WNW,296,0.0,0.0,72,0.00,,,0.00,meteohub,2013-02-26 11:07:00,
2013-02-26 04:12:00,19.2,11.7,29.96,WNW,296,0.0,1.0,72,0.00,,,0.00,meteohub,2013-02-26 11:12:00,
2013-02-26 04:17:00,19.4,12.2,29.96,WNW,296,0.0,2.0,73,0.00,,,0.00,meteohub,2013-02-26 11:17:00,
2013-02-26 04:22:00,19.8,12.6,29.96,WNW,296,0.0,2.0,73,0.00,,,0.00,meteohub,2013-02-26 11:22:00,
2013-02-26 04:27:00,19.9,12.7,29.96,WNW,296,0.0,2.0,73,0.00,,,0.00,meteohub,2013-02-26 11:27:00,
2013-02-26 04:32:00,19.9,12.7,29.96,WNW,296,0.0,2.0,73,0.00,,,0.00,meteohub,2013-02-26 11:32:00,
2013-02-26 04:37:00,20.5,13.5,29.96,NE,47,2.0,2.0,74,0.00,,,0.00,meteohub,2013-02-26 11:37:00,
2013-02-26 04:42:00,20.7,13.5,29.96,NE,47,0.0,4.0,73,0.00,,,0.00,meteohub,2013-02-26 11:42:00,
2013-02-26 04:47:00,20.8,13.3,29.96,ENE,76,2.0,4.0,72,0.00,,,0.00,meteohub,2013-02-26 11:47:00,
2013-02-26 04:52:00,20.8,13.3,29.96,ENE,76,0.0,4.0,72,0.00,,,0.00,meteohub,2013-02-26 11:52:00,
2013-02-26 04:57:00,20.8,12.6,29.96,ENE,76,1.0,3.0,70,0.00,,,0.00,meteohub,2013-02-26 11:57:00,
2013-02-26 05:02:00,20.8,12.6,29.97,ENE,76,0.0,3.0,70,0.00,,,0.00,meteohub,2013-02-26 12:02:00,
2013-02-26 05:07:00,20.8,12.6,29.97,ENE,76,0.0,3.0,70,0.00,,,0.00,meteohub,2013-02-26 12:07:00,
2013-02-26 05:12:00,20.8,12.6,29.97,ENE,76,0.0,3.0,70,0.00,,,0.00,meteohub,2013-02-26 12:12:00,
2013-02-26 05:17:00,20.8,12.6,29.96,ENE,76,0.0,2.0,70,0.00,,,0.00,meteohub,2013-02-26 12:17:00,
2013-02-26 05:22:00,20.8,12.6,29.97,ENE,76,0.0,2.0,70,0.00,,,0.00,meteohub,2013-02-26 12:22:00,
2013-02-26 05:27:00,20.8,12.6,29.97,ENE,76,1.0,2.0,70,0.00,,,0.00,meteohub,2013-02-26 12:27:00,
2013-02-26 05:32:00,20.8,12.9,29.97,ENE,76,0.0,2.0,71,0.00,,,0.00,meteohub,2013-02-26 12:32:00,
2013-02-26 05:37:00,20.8,13.3,29.97,ENE,76,0.0,2.0,72,0.00,,,0.00,meteohub,2013-02-26 12:37:00,
2013-02-26 05:42:00,21.0,13.5,29.97,ENE,76,0.0,2.0,72,0.00,,,0.00,meteohub,2013-02-26 12:42:00,
2013-02-26 05:47:00,21.0,13.5,29.97,ENE,76,2.0,2.0,72,0.00,,,0.00,meteohub,2013-02-26 12:47:00,
2013-02-26 05:52:00,21.4,14.0,29.97,ENE,76,0.0,2.0,73,0.00,,,0.00,meteohub,2013-02-26 12:52:00,
2013-02-26 05:57:00,21.4,14.4,29.97,ENE,76,0.0,2.0,74,0.00,,,0.00,meteohub,2013-02-26 12:57:00,
2013-02-26 06:02:00,21.7,14.7,29.97,ENE,76,0.0,2.0,74,0.00,,,0.00,meteohub,2013-02-26 13:02:00,
2013-02-26 06:07:00,21.7,14.4,29.98,ENE,76,0.0,2.0,73,0.00,,,0.00,meteohub,2013-02-26 13:07:00,
2013-02-26 06:12:00,21.9,14.5,29.98,ENE,76,1.0,2.0,73,0.00,,,0.00,meteohub,2013-02-26 13:12:00,
2013-02-26 06:17:00,21.9,14.5,29.98,ENE,76,0.0,2.0,73,0.00,,,0.00,meteohub,2013-02-26 13:17:00,
2013-02-26 06:22:00,22.1,14.5,29.98,ENE,76,1.0,2.0,72,0.00,,,0.00,meteohub,2013-02-26 13:22:00,
2013-02-26 06:27:00,22.1,14.7,29.98,ENE,76,2.0,2.0,73,0.00,,,0.00,meteohub,2013-02-26 13:27:00,
2013-02-26 06:32:00,22.3,14.9,29.98,ENE,76,0.0,3.0,73,0.00,,,0.00,meteohub,2013-02-26 13:32:00,
2013-02-26 06:37:00,22.5,15.4,29.98,ENE,76,0.0,3.0,74,0.00,,,0.00,meteohub,2013-02-26 13:37:00,
2013-02-26 06:42:00,22.5,15.8,29.98,ENE,78,3.0,3.0,75,0.00,,,0.00,meteohub,2013-02-26 13:42:00,
2013-02-26 06:47:00,22.6,16.2,29.98,WSW,244,5.0,5.0,76,0.00,,,0.00,meteohub,2013-02-26 13:47:00,
2013-02-26 06:52:00,23.0,17.2,29.98,WSW,248,3.0,6.0,78,0.00,,,0.00,meteohub,2013-02-26 13:52:00,
2013-02-26 06:57:00,23.4,18.1,29.98,WSW,248,3.0,6.0,80,0.00,,,0.00,meteohub,2013-02-26 13:57:00,
2013-02-26 07:02:00,23.5,18.3,29.98,WSW,248,0.0,6.0,80,0.00,,,0.00,meteohub,2013-02-26 14:02:00,
2013-02-26 07:07:00,23.9,18.7,29.98,WSW,248,1.0,4.0,80,0.00,,,0.00,meteohub,2013-02-26 14:07:00,
2013-02-26 07:12:00,24.1,18.5,29.98,WSW,248,0.0,4.0,79,0.00,,,0.00,meteohub,2013-02-26 14:12:00,
2013-02-26 07:17:00,24.4,18.9,29.98,WSW,248,0.0,3.0,79,0.00,,,0.00,meteohub,2013-02-26 14:17:00,
2013-02-26 07:22:00,24.4,18.5,29.98,WSW,248,0.0,3.0,78,0.00,,,0.00,meteohub,2013-02-26 14:22:00,
2013-02-26 07:27:00,25.0,18.5,29.98,WSW,248,0.0,1.0,76,0.00,,,0.00,meteohub,2013-02-26 14:27:00,
2013-02-26 07:32:00,25.3,18.1,29.98,WSW,248,0.0,1.0,74,0.00,,,0.00,meteohub,2013-02-26 14:32:00,
2013-02-26 07:37:00,25.3,17.6,29.98,WSW,249,0.0,1.0,72,0.00,,,0.00,meteohub,2013-02-26 14:37:00,
2013-02-26 07:42:00,25.9,16.7,29.99,WSW,249,0.0,4.0,68,0.00,,,0.00,meteohub,2013-02-26 14:42:00,
2013-02-26 07:47:00,26.1,16.3,29.98,WSW,249,0.0,4.0,66,0.00,,,0.00,meteohub,2013-02-26 14:47:00,
2013-02-26 07:52:00,26.6,16.0,29.98,WSW,249,0.0,4.0,64,0.00,,,0.00,meteohub,2013-02-26 14:52:00,
2013-02-26 07:57:00,27.0,15.6,29.98,WSW,249,3.0,3.0,62,0.00,,,0.00,meteohub,2013-02-26 14:57:00,
2013-02-26 08:02:00,27.3,16.3,29.98,WSW,249,4.0,4.0,63,0.00,,,0.00,meteohub,2013-02-26 15:02:00,
2013-02-26 08:07:00,27.7,16.7,29.98,WSW,249,3.0,6.0,63,0.00,,,0.00,meteohub,2013-02-26 15:07:00,
2013-02-26 08:12:00,28.0,17.4,29.98,WSW,249,2.0,6.0,64,0.00,,,0.00,meteohub,2013-02-26 15:12:00,
2013-02-26 08:17:00,28.4,17.8,29.99,NNE,12,5.0,6.0,64,0.00,,,0.00,meteohub,2013-02-26 15:17:00,
2013-02-26 08:22:00,28.4,17.4,29.99,NNE,25,2.0,7.0,63,0.00,,,0.00,meteohub,2013-02-26 15:22:00,
2013-02-26 08:32:00,28.2,18.3,29.99,NNE,24,8.0,8.0,66,0.00,,,0.00,meteohub,2013-02-26 15:32:00,
2013-02-26 08:37:00,28.0,17.4,29.99,NNW,341,5.0,10.0,64,0.00,,,0.00,meteohub,2013-02-26 15:37:00,
2013-02-26 08:42:00,27.9,18.0,29.99,North,351,4.0,10.0,66,0.00,,,0.00,meteohub,2013-02-26 15:42:00,
2013-02-26 08:47:00,27.7,18.9,29.99,North,0,5.0,12.0,69,0.00,,,0.00,meteohub,2013-02-26 15:47:00,
2013-02-26 08:57:00,27.0,17.4,29.99,NNE,24,4.0,12.0,67,0.00,,,0.00,meteohub,2013-02-26 15:57:00,
2013-02-26 09:02:00,26.8,16.9,29.99,North,5,5.0,11.0,66,0.00,,,0.00,meteohub,2013-02-26 16:02:00,
2013-02-26 09:07:00,26.2,17.1,29.99,North,0,5.0,11.0,68,0.00,,,0.00,meteohub,2013-02-26 16:07:00,
2013-02-26 09:12:00,26.1,17.2,29.99,North,0,7.0,11.0,69,0.00,,,0.00,meteohub,2013-02-26 16:12:00,
2013-02-26 09:17:00,25.3,16.9,30.00,NNE,21,9.0,11.0,70,0.00,,,0.00,meteohub,2013-02-26 16:17:00,
2013-02-26 09:22:00,25.2,17.1,30.00,North,0,4.0,11.0,71,0.00,,,0.00,meteohub,2013-02-26 16:22:00,
2013-02-26 09:27:00,25.2,17.8,30.01,NNE,14,4.0,10.0,73,0.00,,,0.00,meteohub,2013-02-26 16:27:00,
2013-02-26 09:32:00,25.2,18.0,30.01,North,0,5.0,9.0,74,0.00,,,0.00,meteohub,2013-02-26 16:32:00,
2013-02-26 09:37:00,25.2,18.7,30.01,NNW,345,4.0,8.0,76,0.00,,,0.00,meteohub,2013-02-26 16:37:00,
2013-02-26 09:42:00,25.3,18.9,30.01,NNW,345,3.0,7.0,76,0.00,,,0.00,meteohub,2013-02-26 16:42:00,
2013-02-26 09:47:00,25.3,18.9,30.01,NNW,345,2.0,6.0,76,0.00,,,0.00,meteohub,2013-02-26 16:47:00,
2013-02-26 09:52:00,25.5,19.4,30.00,NNW,345,2.0,5.0,77,0.00,,,0.00,meteohub,2013-02-26 16:52:00,
2013-02-26 09:57:00,25.7,19.6,30.01,NNW,345,1.0,4.0,77,0.00,,,0.00,meteohub,2013-02-26 16:57:00,
2013-02-26 10:02:00,26.1,19.8,30.00,NNW,345,2.0,4.0,77,0.00,,,0.00,meteohub,2013-02-26 17:02:00,
2013-02-26 10:07:00,26.2,19.9,30.00,NNW,345,1.0,4.0,77,0.00,,,0.00,meteohub,2013-02-26 17:07:00,
2013-02-26 10:17:00,27.0,20.7,30.00,NNW,345,3.0,3.0,77,0.00,,,0.00,meteohub,2013-02-26 17:17:00,
2013-02-26 10:22:00,27.1,20.7,30.00,NNW,345,2.0,3.0,76,0.00,,,0.00,meteohub,2013-02-26 17:22:00,
2013-02-26 10:27:00,27.5,21.0,30.00,NNW,345,2.0,4.0,76,0.00,,,0.00,meteohub,2013-02-26 17:27:00,
2013-02-26 10:32:00,27.5,21.0,30.00,NNW,345,2.0,4.0,76,0.00,,,0.00,meteohub,2013-02-26 17:32:00,
2013-02-26 10:37:00,27.7,21.0,30.00,NNW,345,2.0,4.0,76,0.00,,,0.00,meteohub,2013-02-26 17:37:00,
2013-02-26 10:42:00,27.9,21.2,30.00,NNW,345,3.0,4.0,76,0.00,,,0.00,meteohub,2013-02-26 17:42:00,
2013-02-26 10:47:00,27.9,21.2,30.00,NNW,345,2.0,4.0,76,0.00,,,0.00,meteohub,2013-02-26 17:47:00,
2013-02-26 10:52:00,28.0,21.4,30.00,NNW,345,1.0,4.0,76,0.00,,,0.00,meteohub,2013-02-26 17:52:00,
2013-02-26 10:57:00,28.0,21.4,30.00,NNW,345,0.0,4.0,76,0.00,,,0.00,meteohub,2013-02-26 17:57:00,
2013-02-26 11:02:00,28.2,21.6,30.00,NNW,345,0.0,3.0,76,0.00,,,0.00,meteohub,2013-02-26 18:02:00,
2013-02-26 11:07:00,28.6,21.9,30.00,NNW,345,1.0,3.0,76,0.00,,,0.00,meteohub,2013-02-26 18:07:00,
2013-02-26 11:12:00,28.8,22.1,30.00,NNW,345,3.0,3.0,76,0.00,,,0.00,meteohub,2013-02-26 18:12:00,
2013-02-26 11:17:00,28.8,21.9,30.00,NNW,345,2.0,4.0,75,0.00,,,0.00,meteohub,2013-02-26 18:17:00,
2013-02-26 11:22:00,28.8,21.9,30.00,NNW,345,2.0,4.0,75,0.00,,,0.00,meteohub,2013-02-26 18:22:00,
2013-02-26 11:27:00,28.9,22.3,30.00,NNW,345,1.0,4.0,76,0.00,,,0.00,meteohub,2013-02-26 18:27:00,
2013-02-26 11:32:00,29.3,22.6,30.00,NNW,345,2.0,3.0,76,0.00,,,0.00,meteohub,2013-02-26 18:32:00,
2013-02-26 11:37:00,29.5,22.5,30.00,NNW,345,1.0,3.0,75,0.00,,,0.00,meteohub,2013-02-26 18:37:00,
2013-02-26 11:42:00,29.8,22.6,30.00,NNW,345,0.0,3.0,74,0.00,,,0.00,meteohub,2013-02-26 18:42:00,
2013-02-26 11:47:00,30.0,22.5,29.99,NNW,345,0.0,3.0,73,0.00,,,0.00,meteohub,2013-02-26 18:47:00,
2013-02-26 11:52:00,29.5,21.6,29.99,NNW,345,0.0,3.0,72,0.00,,,0.00,meteohub,2013-02-26 18:52:00,
2013-02-26 11:57:00,29.5,22.8,29.99,NNW,345,2.0,2.0,76,0.00,,,0.00,meteohub,2013-02-26 18:57:00,
2013-02-26 12:02:00,29.5,22.3,29.99,NNW,345,1.0,2.0,74,0.00,,,0.00,meteohub,2013-02-26 19:02:00,
2013-02-26 12:07:00,29.5,22.3,29.99,NNW,345,1.0,2.0,74,0.00,,,0.00,meteohub,2013-02-26 19:07:00,
2013-02-26 12:12:00,29.8,22.8,29.99,NNW,345,1.0,2.0,75,0.00,,,0.00,meteohub,2013-02-26 19:12:00,
2013-02-26 12:17:00,30.4,23.4,29.99,SSW,196,1.0,4.0,75,0.00,,,0.00,meteohub,2013-02-26 19:17:00,
2013-02-26 12:22:00,30.9,23.5,29.98,SSW,196,3.0,5.0,74,0.02,,,0.02,meteohub,2013-02-26 19:22:00,
2013-02-26 12:27:00,31.6,24.3,29.98,SSW,207,4.0,5.0,74,0.03,,,0.02,meteohub,2013-02-26 19:27:00,
2013-02-26 12:37:00,32.7,23.7,29.98,SW,217,3.0,8.0,69,0.04,,,0.04,meteohub,2013-02-26 19:37:00,
2013-02-26 12:42:00,33.3,24.3,29.97,SW,219,6.0,8.0,69,0.05,,,0.04,meteohub,2013-02-26 19:42:00,
2013-02-26 12:47:00,33.4,24.1,29.98,WSW,242,2.0,8.0,68,0.05,,,0.05,meteohub,2013-02-26 19:47:00,
2013-02-26 12:52:00,33.4,24.1,29.98,WSW,238,3.0,7.0,68,0.06,,,0.06,meteohub,2013-02-26 19:52:00,
2013-02-26 12:57:00,33.4,24.4,29.98,West,263,4.0,7.0,69,0.06,,,0.06,meteohub,2013-02-26 19:57:00,
2013-02-26 13:02:00,33.6,24.3,29.97,WSW,242,3.0,7.0,68,0.06,,,0.06,meteohub,2013-02-26 20:02:00,
2013-02-26 13:07:00,34.2,24.6,29.98,West,267,0.0,7.0,68,0.06,,,0.06,meteohub,2013-02-26 20:07:00,
2013-02-26 13:12:00,34.7,24.4,29.98,West,266,5.0,6.0,66,0.06,,,0.06,meteohub,2013-02-26 20:12:00,
2013-02-26 13:17:00,35.1,23.7,29.98,WSW,254,1.0,6.0,63,0.05,,,0.06,meteohub,2013-02-26 20:17:00,
2013-02-26 13:22:00,35.2,24.3,29.98,WSW,254,3.0,6.0,64,0.04,,,0.06,meteohub,2013-02-26 20:22:00,
2013-02-26 13:27:00,35.1,22.6,29.98,WSW,254,2.0,5.0,60,0.03,,,0.06,meteohub,2013-02-26 20:27:00,
2013-02-26 13:32:00,34.3,22.6,29.98,WSW,254,2.0,5.0,62,0.03,,,0.06,meteohub,2013-02-26 20:32:00,
2013-02-26 13:37:00,33.8,22.5,29.99,WSW,254,3.0,5.0,63,0.02,,,0.06,meteohub,2013-02-26 20:37:00,
2013-02-26 13:42:00,33.4,22.6,29.99,WSW,254,2.0,5.0,64,0.01,,,0.06,meteohub,2013-02-26 20:42:00,
2013-02-26 13:47:00,33.6,22.8,29.99,WSW,254,3.0,5.0,64,0.00,,,0.06,meteohub,2013-02-26 20:47:00,
2013-02-26 13:52:00,33.6,22.5,29.99,WNW,292,4.0,5.0,63,0.00,,,0.06,meteohub,2013-02-26 20:52:00,
2013-02-26 14:02:00,32.9,20.5,29.99,NNE,24,5.0,6.0,60,0.00,,,0.06,meteohub,2013-02-26 21:02:00,
2013-02-26 14:07:00,32.2,20.7,30.00,North,0,4.0,7.0,62,0.00,,,0.06,meteohub,2013-02-26 21:07:00,
2013-02-26 14:12:00,31.8,20.7,30.00,NNW,343,7.0,9.0,63,0.00,,,0.06,meteohub,2013-02-26 21:12:00,
2013-02-26 14:17:00,31.8,21.4,30.01,NNE,17,6.0,11.0,65,0.00,,,0.06,meteohub,2013-02-26 21:17:00,
2013-02-26 14:22:00,31.3,21.6,30.01,NNE,19,5.0,11.0,67,0.00,,,0.06,meteohub,2013-02-26 21:22:00,
2013-02-26 14:27:00,31.3,21.9,30.01,NNE,12,4.0,11.0,68,0.00,,,0.06,meteohub,2013-02-26 21:27:00,
2013-02-26 14:32:00,30.9,22.6,30.01,NW,316,6.0,7.0,71,0.00,,,0.06,meteohub,2013-02-26 21:32:00,
2013-02-26 14:37:00,30.9,23.0,30.02,NNW,330,3.0,7.0,72,0.00,,,0.06,meteohub,2013-02-26 21:37:00,
2013-02-26 14:42:00,30.4,22.8,30.02,East,80,6.0,8.0,73,0.00,,,0.06,meteohub,2013-02-26 21:42:00,
2013-02-26 14:47:00,29.8,23.2,30.03,NNE,29,3.0,12.0,76,0.00,,,0.06,meteohub,2013-02-26 21:47:00,
2013-02-26 14:52:00,29.5,23.5,30.04,North,11,5.0,12.0,78,0.01,,,0.07,meteohub,2013-02-26 21:52:00,
2013-02-26 14:57:00,29.5,23.7,30.04,NNE,22,3.0,12.0,79,0.01,,,0.07,meteohub,2013-02-26 21:57:00,
2013-02-26 15:02:00,29.3,23.9,30.04,North,9,3.0,8.0,80,0.01,,,0.07,meteohub,2013-02-26 22:02:00,
2013-02-26 15:07:00,29.3,24.3,30.04,North,11,3.0,9.0,81,0.01,,,0.07,meteohub,2013-02-26 22:07:00,
2013-02-26 15:12:00,29.3,23.9,30.04,NNE,17,3.0,9.0,80,0.01,,,0.07,meteohub,2013-02-26 22:12:00,
2013-02-26 15:17:00,29.1,23.4,30.04,NNE,14,3.0,8.0,79,0.01,,,0.07,meteohub,2013-02-26 22:17:00,
2013-02-26 15:22:00,29.3,23.9,30.04,North,0,2.0,8.0,80,0.01,,,0.07,meteohub,2013-02-26 22:22:00,
2013-02-26 15:27:00,29.3,23.4,30.04,NNW,327,0.0,8.0,78,0.01,,,0.07,meteohub,2013-02-26 22:27:00,
2013-02-26 15:32:00,29.5,23.5,30.04,WNW,290,2.0,6.0,78,0.01,,,0.07,meteohub,2013-02-26 22:32:00,
2013-02-26 15:37:00,29.8,23.9,30.04,WNW,289,2.0,6.0,78,0.01,,,0.07,meteohub,2013-02-26 22:37:00,
2013-02-26 15:47:00,30.6,24.3,30.05,West,273,3.0,6.0,77,0.01,,,0.07,meteohub,2013-02-26 22:47:00,
2013-02-26 15:52:00,30.7,23.7,30.05,West,267,3.0,7.0,75,0.00,,,0.07,meteohub,2013-02-26 22:52:00,
2013-02-26 15:57:00,30.9,23.9,30.05,WSW,241,4.0,7.0,75,0.00,,,0.07,meteohub,2013-02-26 22:57:00,
2013-02-26 16:02:00,30.9,23.9,30.05,West,261,4.0,7.0,75,0.00,,,0.07,meteohub,2013-02-26 23:02:00,
2013-02-26 16:07:00,30.9,23.5,30.05,West,274,5.0,7.0,74,0.00,,,0.07,meteohub,2013-02-26 23:07:00,
2013-02-26 16:12:00,31.3,23.7,30.06,WNW,294,4.0,7.0,73,0.00,,,0.07,meteohub,2013-02-26 23:12:00,
2013-02-26 16:17:00,31.3,23.4,30.06,WNW,296,5.0,7.0,72,0.00,,,0.07,meteohub,2013-02-26 23:17:00,
2013-02-26 16:22:00,30.9,21.9,30.06,West,275,3.0,8.0,69,0.00,,,0.07,meteohub,2013-02-26 23:22:00,
2013-02-26 16:27:00,30.9,20.8,30.06,North,351,3.0,8.0,66,0.00,,,0.07,meteohub,2013-02-26 23:27:00,
2013-02-26 16:32:00,30.7,19.9,30.07,NNW,333,2.0,8.0,64,0.00,,,0.07,meteohub,2013-02-26 23:32:00,
2013-02-26 16:37:00,30.7,19.2,30.07,NNW,347,6.0,8.0,62,0.00,,,0.07,meteohub,2013-02-26 23:37:00,
2013-02-26 16:42:00,30.7,18.5,30.08,NNW,331,8.0,8.0,60,0.00,,,0.07,meteohub,2013-02-26 23:42:00,
2013-02-26 16:47:00,30.6,17.6,30.08,North,9,9.0,14.0,58,0.00,,,0.07,meteohub,2013-02-26 23:47:00,
2013-02-26 16:52:00,30.6,17.1,30.08,NNW,340,5.0,14.0,57,0.00,,,0.07,meteohub,2013-02-26 23:52:00,
2013-02-26 16:57:00,30.6,17.6,30.08,NNW,341,6.0,13.0,58,0.00,,,0.07,meteohub,2013-02-26 23:57:00,
2013-02-26 17:02:00,30.6,18.0,30.09,NNE,16,4.0,13.0,59,0.00,,,0.07,meteohub,2013-02-27 00:02:00,
2013-02-26 17:07:00,30.6,18.3,30.09,NNE,15,5.0,8.0,60,0.00,,,0.07,meteohub,2013-02-27 00:07:00,
2013-02-26 17:12:00,30.4,17.8,30.09,North,351,4.0,11.0,59,0.00,,,0.07,meteohub,2013-02-27 00:12:00,
2013-02-26 17:17:00,30.0,17.4,30.09,NNW,342,5.0,12.0,59,0.00,,,0.07,meteohub,2013-02-27 00:17:00,
2013-02-26 17:22:00,29.8,18.0,30.10,NNW,327,2.0,12.0,61,0.00,,,0.07,meteohub,2013-02-27 00:22:00,
2013-02-26 17:27:00,29.5,18.1,30.10,NNW,348,8.0,13.0,62,0.00,,,0.07,meteohub,2013-02-27 00:27:00,
2013-02-26 17:32:00,29.3,18.0,30.11,NW,319,4.0,13.0,62,0.00,,,0.07,meteohub,2013-02-27 00:32:00,
2013-02-26 17:37:00,29.1,17.8,30.11,NNW,342,6.0,13.0,62,0.00,,,0.07,meteohub,2013-02-27 00:37:00,
2013-02-26 17:42:00,28.9,17.6,30.11,North,351,4.0,12.0,62,0.00,,,0.07,meteohub,2013-02-27 00:42:00,
2013-02-26 17:47:00,28.9,17.6,30.11,NNW,336,8.0,12.0,62,0.00,,,0.07,meteohub,2013-02-27 00:47:00,
2013-02-26 17:52:00,28.9,16.9,30.12,NNW,342,8.0,12.0,60,0.00,,,0.07,meteohub,2013-02-27 00:52:00,
2013-02-26 17:57:00,28.8,17.1,30.13,NW,319,6.0,11.0,61,0.00,,,0.07,meteohub,2013-02-27 00:57:00,
2013-02-26 18:02:00,28.8,17.1,30.13,NE,34,7.0,11.0,61,0.00,,,0.07,meteohub,2013-02-27 01:02:00,
2013-02-26 18:07:00,28.8,17.1,30.14,North,5,3.0,11.0,61,0.00,,,0.07,meteohub,2013-02-27 01:07:00,
2013-02-26 18:12:00,28.6,16.9,30.14,NW,319,4.0,15.0,61,0.00,,,0.07,meteohub,2013-02-27 01:12:00,
2013-02-26 18:17:00,28.4,17.1,30.15,NW,306,5.0,15.0,62,0.00,,,0.07,meteohub,2013-02-27 01:17:00,
2013-02-26 18:22:00,28.2,17.2,30.15,NNW,337,6.0,15.0,63,0.00,,,0.07,meteohub,2013-02-27 01:22:00,
2013-02-26 18:27:00,28.0,17.4,30.16,NW,304,4.0,14.0,64,0.00,,,0.07,meteohub,2013-02-27 01:27:00,
2013-02-26 18:32:00,28.0,17.4,30.16,NW,309,7.0,14.0,64,0.00,,,0.07,meteohub,2013-02-27 01:32:00,
2013-02-26 18:37:00,27.9,17.2,30.16,WNW,300,5.0,13.0,64,0.00,,,0.07,meteohub,2013-02-27 01:37:00,
2013-02-26 18:42:00,27.9,17.2,30.17,WNW,286,6.0,9.0,64,0.00,,,0.07,meteohub,2013-02-27 01:42:00,
2013-02-26 18:47:00,27.9,16.9,30.17,NW,310,3.0,9.0,63,0.00,,,0.07,meteohub,2013-02-27 01:47:00,
2013-02-26 18:52:00,27.9,16.9,30.17,NNW,329,3.0,9.0,63,0.00,,,0.07,meteohub,2013-02-27 01:52:00,
2013-02-26 18:57:00,27.9,16.9,30.17,NW,309,5.0,9.0,63,0.00,,,0.07,meteohub,2013-02-27 01:57:00,
2013-02-26 19:02:00,27.9,16.2,30.17,NNW,328,2.0,8.0,61,0.00,,,0.07,meteohub,2013-02-27 02:02:00,
2013-02-26 19:07:00,27.9,16.2,30.17,NW,322,3.0,10.0,61,0.00,,,0.07,meteohub,2013-02-27 02:07:00,
2013-02-26 19:12:00,27.9,16.2,30.18,NW,326,3.0,10.0,61,0.00,,,0.07,meteohub,2013-02-27 02:12:00,
2013-02-26 19:17:00,27.9,16.2,30.19,NW,311,5.0,7.0,61,0.00,,,0.07,meteohub,2013-02-27 02:17:00,
2013-02-26 19:22:00,27.9,15.8,30.19,NW,304,4.0,7.0,60,0.00,,,0.07,meteohub,2013-02-27 02:22:00,
2013-02-26 19:32:00,27.9,15.4,30.20,NW,311,2.0,7.0,59,0.00,,,0.07,meteohub,2013-02-27 02:32:00,
2013-02-26 19:37:00,27.9,15.1,30.20,NNW,338,1.0,9.0,58,0.00,,,0.07,meteohub,2013-02-27 02:37:00,
2013-02-26 19:42:00,27.9,15.4,30.20,NNW,337,2.0,11.0,59,0.00,,,0.07,meteohub,2013-02-27 02:42:00,
2013-02-26 19:47:00,27.9,15.4,30.20,NNW,336,4.0,11.0,59,0.00,,,0.07,meteohub,2013-02-27 02:47:00,
2013-02-26 19:52:00,27.9,15.4,30.21,NNW,336,1.0,8.0,59,0.00,,,0.07,meteohub,2013-02-27 02:52:00,
2013-02-26 19:57:00,27.9,15.4,30.21,NNW,336,3.0,6.0,59,0.00,,,0.07,meteohub,2013-02-27 02:57:00,
2013-02-26 20:07:00,27.7,15.3,30.21,NW,309,2.0,8.0,59,0.00,,,0.07,meteohub,2013-02-27 03:07:00,
2013-02-26 20:12:00,27.7,14.9,30.22,NW,313,3.0,8.0,58,0.00,,,0.07,meteohub,2013-02-27 03:12:00,
2013-02-26 20:17:00,27.7,14.9,30.23,NW,314,3.0,7.0,58,0.00,,,0.07,meteohub,2013-02-27 03:17:00,
2013-02-26 20:22:00,27.7,14.9,30.23,NW,315,5.0,9.0,58,0.00,,,0.07,meteohub,2013-02-27 03:22:00,
2013-02-26 20:27:00,27.9,14.5,30.22,NW,311,5.0,10.0,57,0.00,,,0.07,meteohub,2013-02-27 03:27:00,
2013-02-26 20:32:00,27.9,14.5,30.23,NW,317,3.0,10.0,57,0.00,,,0.07,meteohub,2013-02-27 03:32:00,
2013-02-26 20:37:00,27.9,15.1,30.23,NW,317,4.0,10.0,58,0.00,,,0.07,meteohub,2013-02-27 03:37:00,
2013-02-26 20:42:00,27.7,14.9,30.23,NW,314,5.0,6.0,58,0.00,,,0.07,meteohub,2013-02-27 03:42:00,
2013-02-26 20:47:00,27.7,14.0,30.23,WNW,295,4.0,8.0,56,0.00,,,0.07,meteohub,2013-02-27 03:47:00,
2013-02-26 20:52:00,27.9,13.8,30.23,North,9,3.0,10.0,55,0.00,,,0.07,meteohub,2013-02-27 03:52:00,
2013-02-26 21:02:00,28.0,12.7,30.24,NNW,341,8.0,12.0,52,0.00,,,0.07,meteohub,2013-02-27 04:02:00,
2013-02-26 21:07:00,28.4,12.6,30.24,NW,312,5.0,14.0,51,0.00,,,0.07,meteohub,2013-02-27 04:07:00,
2013-02-26 21:12:00,28.4,13.1,30.24,WNW,294,5.0,14.0,52,0.00,,,0.07,meteohub,2013-02-27 04:12:00,
2013-02-26 21:17:00,28.4,13.1,30.24,North,349,6.0,11.0,52,0.00,,,0.07,meteohub,2013-02-27 04:17:00,
2013-02-26 21:22:00,28.6,12.4,30.24,NNW,327,9.0,12.0,50,0.00,,,0.07,meteohub,2013-02-27 04:22:00,
2013-02-26 21:27:00,28.6,13.1,30.24,North,0,8.0,13.0,52,0.00,,,0.07,meteohub,2013-02-27 04:27:00,
2013-02-26 21:32:00,28.6,13.1,30.24,NE,36,7.0,13.0,52,0.00,,,0.07,meteohub,2013-02-27 04:32:00,
2013-02-26 21:37:00,28.6,12.7,30.24,North,351,8.0,16.0,51,0.00,,,0.07,meteohub,2013-02-27 04:37:00,
2013-02-26 21:42:00,28.6,12.7,30.24,North,0,4.0,16.0,51,0.00,,,0.07,meteohub,2013-02-27 04:42:00,
2013-02-26 21:47:00,28.4,13.1,30.25,NNE,20,11.0,16.0,52,0.00,,,0.07,meteohub,2013-02-27 04:47:00,
2013-02-26 21:52:00,28.2,12.9,30.25,NNE,13,7.0,14.0,52,0.00,,,0.07,meteohub,2013-02-27 04:52:00,
2013-02-26 21:57:00,28.0,13.1,30.25,NNE,18,5.0,14.0,53,0.00,,,0.07,meteohub,2013-02-27 04:57:00,
2013-02-26 22:02:00,27.9,12.9,30.25,North,0,5.0,14.0,53,0.00,,,0.07,meteohub,2013-02-27 05:02:00,
2013-02-26 22:07:00,27.7,13.3,30.25,NNE,26,10.0,15.0,54,0.00,,,0.07,meteohub,2013-02-27 05:07:00,
2013-02-26 22:12:00,27.5,13.5,30.25,NNW,329,7.0,15.0,55,0.00,,,0.07,meteohub,2013-02-27 05:12:00,
2013-02-26 22:17:00,27.3,13.3,30.25,NNW,344,4.0,15.0,55,0.00,,,0.07,meteohub,2013-02-27 05:17:00,
2013-02-26 22:22:00,27.1,13.1,30.26,NW,317,6.0,13.0,55,0.00,,,0.07,meteohub,2013-02-27 05:22:00,
2013-02-26 22:27:00,27.0,13.3,30.26,WNW,284,3.0,13.0,56,0.00,,,0.07,meteohub,2013-02-27 05:27:00,
2013-02-26 22:32:00,27.0,13.8,30.27,West,275,5.0,11.0,57,0.00,,,0.07,meteohub,2013-02-27 05:32:00,
2013-02-26 22:37:00,26.6,13.5,30.27,WNW,298,4.0,8.0,57,0.00,,,0.07,meteohub,2013-02-27 05:37:00,
2013-02-26 22:42:00,26.4,12.9,30.27,WNW,298,4.0,8.0,56,0.00,,,0.07,meteohub,2013-02-27 05:42:00,
2013-02-26 22:47:00,26.4,12.9,30.27,WNW,300,5.0,8.0,56,0.00,,,0.07,meteohub,2013-02-27 05:47:00,
2013-02-26 22:52:00,26.4,12.9,30.27,WNW,299,4.0,7.0,56,0.00,,,0.07,meteohub,2013-02-27 05:52:00,
2013-02-26 22:57:00,26.4,12.4,30.27,WNW,302,6.0,7.0,55,0.00,,,0.07,meteohub,2013-02-27 05:57:00,
2013-02-26 23:02:00,26.4,12.4,30.27,NW,315,4.0,9.0,55,0.00,,,0.07,meteohub,2013-02-27 06:02:00,
2013-02-26 23:07:00,26.4,12.0,30.27,NW,308,6.0,9.0,54,0.00,,,0.07,meteohub,2013-02-27 06:07:00,
2013-02-26 23:12:00,26.6,11.8,30.27,NW,309,5.0,9.0,53,0.00,,,0.07,meteohub,2013-02-27 06:12:00,
2013-02-26 23:17:00,26.6,11.8,30.27,NW,318,3.0,13.0,53,0.00,,,0.07,meteohub,2013-02-27 06:17:00,
2013-02-26 23:22:00,26.6,11.8,30.27,NW,315,5.0,13.0,53,0.00,,,0.07,meteohub,2013-02-27 06:22:00,
2013-02-26 23:27:00,26.8,12.0,30.27,NW,323,4.0,9.0,53,0.00,,,0.07,meteohub,2013-02-27 06:27:00,
2013-02-26 23:32:00,26.8,11.5,30.28,WNW,288,3.0,10.0,52,0.00,,,0.07,meteohub,2013-02-27 06:32:00,
2013-02-26 23:37:00,26.8,12.0,30.28,WNW,290,4.0,11.0,53,0.00,,,0.07,meteohub,2013-02-27 06:37:00,
2013-02-26 23:42:00,26.6,12.2,30.28,West,279,3.0,11.0,54,0.00,,,0.07,meteohub,2013-02-27 06:42:00,
2013-02-26 23:47:00,26.2,11.8,30.28,West,279,3.0,7.0,54,0.00,,,0.07,meteohub,2013-02-27 06:47:00,
2013-02-26 23:52:00,26.1,12.0,30.28,West,279,5.0,6.0,55,0.00,,,0.07,meteohub,2013-02-27 06:52:00,
2013-02-26 23:57:00,25.9,12.0,30.29,WNW,287,6.0,6.0,55,0.00,,,0.07,meteohub,2013-02-27 06:57:00,